Weather in Poselok stantsii Saryyevo

Russia / Vladimir Oblast     56°17′55″N   41°42′33″E
temp.,
°C
wind,
m/s
gust,
m/s
humid.,
%
clouds,
%
prec.,
mm/h
press.,
hPa
HPBL,
m
4 march, thu
thu400:00−2w41193100 0.1 1004777
03:00−2wsw51295100 0.3 1002715
06:00−1wsw61396100 1.5 997913
09:00+1w71397100 3.5 995990
12:00+1wnw61376100 1.5 9961392
15:000wnw697468 1.5 9971160
18:00−4wnw379087 0.1 998219
21:00−7nw259371 0.1 1000129
5 march, fri
fri500:00−9nw22955 0.0 100134
03:00−10nw22953 0.0 100336
06:00−11wnw22950 0.0 100447
09:00−8w25880 0.0 1005210
12:00−4w358117 0.0 1006629
15:00−4wnw468558 0.2 1007712
18:00−6w399087 0.1 1008309
21:00−8nw3109366 0.2 1012509
6 march, sat
sat600:00−13nw269238 0.0 1014190
03:00−14wnw239119 0.0 101683
06:00−15wnw22910 0.0 101658
09:00−12wnw13820 0.0 1016214
12:00−8wnw247565 0.0 1016601
15:00−7wnw357680 0.1 1015927
18:00−10wnw249199 0.1 1015141
21:00−13wnw239373 0.1 101577
7 march, sun
sun700:00−14sw23930 0.0 101388
03:00−13ssw410860 0.0 1011266
06:00−11ssw5138551 0.0 1007474
09:00−9ssw6138875 0.1 1004640
12:00−6ssw71388100 0.3 9991073
15:00−4ssw71390100 1.3 9951127
18:00−4wsw71294100 1.6 9931004
21:00−7wnw51189100 2.7 9951197
8 march, mon
mon800:00−11wsw4118233 0.0 996300
03:00−10sw4128565 0.1 996486
06:00−9sw41088100 0.0 995429
09:00−9ssw4890100 0.1 994451
12:00−6sw2589100 0.5 995496
15:00−5wnw4892100 1.5 997657
18:00−8nw61385100 1.3 1000798
21:00−11wnw4129299 1.4 1005498